WZZ9252 EPWA-LICA

Flight info

Callsign WZZ9252
Flight time 2h 4m
Altitude 36000
Route EVINA M66 BABKO DCT VEBAL DCT KATTI/N0386F250 DCT AGNIS/N0356F190 M729 GIROV
Aircraft A21N/M-SDE1E2E3FGIJ1J4RWXY/LB1G1

Departure

Time 2026-04-24 05:04
Airport Warsaw Chopin Airport (EPWA)

Arrival

Time 2026-04-24 07:09
Airport Lamezia Terme Sant'Eufemia International Airport (LICA)
Time Latitude Longitude Altitude Speed Heading
2026-04-24 04:22 52.17725 20.96239 344 ft 0 kts 242°
2026-04-24 04:36 52.17725 20.96240 344 ft 0 kts 242°
2026-04-24 04:59 52.17719 20.96223 344 ft 5 kts 242°
2026-04-24 05:00 52.17656 20.96167 352 ft 14 kts 161°
2026-04-24 05:00 52.17560 20.96247 347 ft 17 kts 152°
2026-04-24 05:00 52.17452 20.96340 350 ft 19 kts 152°
2026-04-24 05:00 52.17333 20.96447 347 ft 20 kts 152°
2026-04-24 05:01 52.17206 20.96558 354 ft 21 kts 152°
2026-04-24 05:01 52.17072 20.96676 344 ft 22 kts 152°
2026-04-24 05:01 52.16931 20.96800 348 ft 23 kts 152°
2026-04-24 05:01 52.16783 20.96926 350 ft 24 kts 152°
2026-04-24 05:02 52.16652 20.97093 348 ft 25 kts 114°
2026-04-24 05:02 52.16582 20.97344 347 ft 24 kts 115°
2026-04-24 05:02 52.16510 20.97595 350 ft 25 kts 115°
2026-04-24 05:02 52.16462 20.97767 344 ft 13 kts 115°
2026-04-24 05:03 52.16384 20.97783 348 ft 14 kts 207°
2026-04-24 05:03 52.16311 20.97680 353 ft 15 kts 265°
2026-04-24 05:03 52.16358 20.97485 349 ft 31 kts 295°
2026-04-24 05:03 52.16538 20.96820 352 ft 99 kts 294°
2026-04-24 05:04 52.16915 20.95468 401 ft 154 kts 293°
2026-04-24 05:04 52.17374 20.93881 1207 ft 155 kts 296°
2026-04-24 05:04 52.17811 20.92296 2077 ft 150 kts 297°
2026-04-24 05:04 52.18211 20.90757 2763 ft 146 kts 297°
2026-04-24 05:05 52.18245 20.89128 3289 ft 156 kts 259°
2026-04-24 05:05 52.17936 20.87375 3654 ft 167 kts 266°
2026-04-24 05:05 52.17725 20.85389 3971 ft 188 kts 266°
2026-04-24 05:05 52.17418 20.83212 4435 ft 205 kts 263°
2026-04-24 05:06 52.17079 20.80867 4925 ft 220 kts 263°
2026-04-24 05:06 52.16725 20.78359 5394 ft 235 kts 263°
2026-04-24 05:06 52.16348 20.75676 5941 ft 252 kts 263°
2026-04-24 05:06 52.15915 20.72829 6576 ft 266 kts 258°
2026-04-24 05:07 52.14991 20.70134 7320 ft 283 kts 233°
2026-04-24 05:07 52.13502 20.68011 8108 ft 293 kts 223°
2026-04-24 05:07 52.11833 20.65978 8892 ft 298 kts 222°
2026-04-24 05:07 52.10180 20.63961 9643 ft 304 kts 223°
2026-04-24 05:08 52.08480 20.61858 10275 ft 312 kts 223°
2026-04-24 05:08 52.06706 20.59645 10631 ft 331 kts 221°
2026-04-24 05:08 52.04576 20.57859 10914 ft 358 kts 202°
2026-04-24 05:08 52.02125 20.56674 11252 ft 376 kts 198°
2026-04-24 05:09 51.99570 20.55537 11842 ft 384 kts 198°
2026-04-24 05:09 51.96983 20.54360 12549 ft 388 kts 198°
2026-04-24 05:09 51.94371 20.53139 13250 ft 393 kts 198°
2026-04-24 05:09 51.91723 20.51883 13920 ft 399 kts 198°
2026-04-24 05:10 51.89048 20.50607 14556 ft 403 kts 198°
2026-04-24 05:10 51.86353 20.49319 15222 ft 405 kts 198°
2026-04-24 05:10 51.83632 20.48019 15886 ft 408 kts 198°
2026-04-24 05:10 51.80895 20.46713 16539 ft 412 kts 198°
2026-04-24 05:11 51.78138 20.45399 17189 ft 415 kts 198°
2026-04-24 05:11 51.75359 20.44076 17827 ft 418 kts 198°
2026-04-24 05:11 51.72552 20.42741 18436 ft 422 kts 198°
2026-04-24 05:11 51.69758 20.41416 18973 ft 425 kts 198°
2026-04-24 05:12 51.66907 20.40064 19519 ft 429 kts 198°
2026-04-24 05:12 51.64034 20.38702 20060 ft 432 kts 198°
2026-04-24 05:12 51.61140 20.37334 20599 ft 435 kts 198°
2026-04-24 05:12 51.58232 20.35962 21127 ft 438 kts 198°
2026-04-24 05:13 51.52336 20.33185 22165 ft 444 kts 197°
2026-04-24 05:13 51.49362 20.31786 22687 ft 447 kts 197°
2026-04-24 05:13 51.46367 20.30377 23192 ft 450 kts 197°
2026-04-24 05:14 51.43350 20.28961 23683 ft 453 kts 197°
2026-04-24 05:14 51.40316 20.27538 24077 ft 456 kts 197°
2026-04-24 05:14 51.37258 20.26109 24464 ft 459 kts 197°
2026-04-24 05:14 51.34184 20.24672 24843 ft 462 kts 197°
2026-04-24 05:15 51.31082 20.23226 25228 ft 465 kts 197°
2026-04-24 05:15 51.27963 20.21775 25590 ft 468 kts 197°
2026-04-24 05:15 51.24863 20.20334 25954 ft 472 kts 197°
2026-04-24 05:15 51.21698 20.18863 26320 ft 475 kts 197°
2026-04-24 05:16 51.18515 20.17388 26684 ft 478 kts 197°
2026-04-24 05:16 51.15310 20.15904 27032 ft 481 kts 197°
2026-04-24 05:16 51.12088 20.14415 27383 ft 484 kts 197°
2026-04-24 05:16 51.08839 20.12914 27736 ft 487 kts 197°
2026-04-24 05:17 51.05574 20.11409 28080 ft 490 kts 197°
2026-04-24 05:17 51.02286 20.09894 28395 ft 493 kts 197°
2026-04-24 05:17 50.98985 20.08376 28733 ft 495 kts 197°
2026-04-24 05:17 50.95664 20.06850 29055 ft 498 kts 197°
2026-04-24 05:18 50.92369 20.05341 29367 ft 501 kts 197°
2026-04-24 05:18 50.89010 20.03802 29664 ft 504 kts 197°
2026-04-24 05:18 50.85632 20.02257 29966 ft 506 kts 197°
2026-04-24 05:18 50.82241 20.00711 30244 ft 508 kts 197°
2026-04-24 05:19 50.78841 19.99162 30569 ft 508 kts 197°
2026-04-24 05:19 50.75441 19.97618 30893 ft 508 kts 197°
2026-04-24 05:19 50.72049 19.96077 31229 ft 507 kts 196°
2026-04-24 05:19 50.68658 19.94538 31538 ft 507 kts 196°
2026-04-24 05:20 50.65271 19.93003 31827 ft 507 kts 196°
2026-04-24 05:20 50.61881 19.91472 32134 ft 506 kts 196°
2026-04-24 05:20 50.58496 19.89944 32431 ft 506 kts 196°
2026-04-24 05:20 50.55112 19.88418 32710 ft 506 kts 196°
2026-04-24 05:21 50.51774 19.86915 32976 ft 505 kts 196°
2026-04-24 05:21 50.48390 19.85394 33222 ft 506 kts 196°
2026-04-24 05:21 50.45005 19.83876 33485 ft 505 kts 196°
2026-04-24 05:21 50.41617 19.82356 33759 ft 505 kts 196°
2026-04-24 05:22 50.38238 19.80842 34014 ft 504 kts 196°
2026-04-24 05:22 50.34859 19.79334 34225 ft 504 kts 196°
2026-04-24 05:22 50.31493 19.77832 34432 ft 504 kts 195°
2026-04-24 05:22 50.28123 19.76330 34635 ft 503 kts 195°
2026-04-24 05:23 50.24754 19.74833 34835 ft 503 kts 195°
2026-04-24 05:23 50.21396 19.73343 35044 ft 502 kts 195°
2026-04-24 05:23 50.18035 19.71852 35234 ft 501 kts 195°
2026-04-24 05:23 50.14723 19.70384 35419 ft 501 kts 195°
2026-04-24 05:24 50.11375 19.68905 35606 ft 500 kts 195°
2026-04-24 05:24 50.08032 19.67426 35792 ft 499 kts 195°
2026-04-24 05:24 50.04694 19.65953 35974 ft 498 kts 195°
2026-04-24 05:24 50.01357 19.64484 36108 ft 498 kts 195°
2026-04-24 05:25 49.98026 19.63021 36115 ft 497 kts 195°
2026-04-24 05:25 49.91376 19.60106 36085 ft 496 kts 195°
2026-04-24 05:26 49.84736 19.57197 36081 ft 495 kts 195°
2026-04-24 05:26 49.78100 19.54302 36079 ft 495 kts 194°
2026-04-24 05:27 49.71468 19.51421 36082 ft 495 kts 194°
2026-04-24 05:27 49.64814 19.48532 35974 ft 497 kts 196°
2026-04-24 05:28 49.58239 19.45100 36060 ft 500 kts 204°
2026-04-24 05:28 49.51867 19.40966 36084 ft 500 kts 204°
2026-04-24 05:29 49.45452 19.36811 36085 ft 500 kts 204°
2026-04-24 05:29 49.39018 19.32676 36085 ft 501 kts 204°
2026-04-24 05:30 49.32580 19.28558 36086 ft 501 kts 204°
2026-04-24 05:30 49.26183 19.24472 36086 ft 501 kts 204°
2026-04-24 05:31 49.19748 19.20373 36083 ft 501 kts 204°
2026-04-24 05:31 49.13304 19.16281 36081 ft 501 kts 203°
2026-04-24 05:32 49.06858 19.12198 36081 ft 501 kts 203°
2026-04-24 05:32 49.00405 19.08121 36080 ft 502 kts 203°
2026-04-24 05:33 48.93944 19.04051 36073 ft 503 kts 203°
2026-04-24 05:33 48.87514 19.00013 36074 ft 502 kts 203°
2026-04-24 05:34 48.77830 18.93953 36068 ft 502 kts 203°
2026-04-24 05:34 48.71362 18.89920 36066 ft 502 kts 203°
2026-04-24 05:35 48.64897 18.85901 36068 ft 502 kts 203°
2026-04-24 05:35 48.58431 18.81891 36071 ft 501 kts 203°
2026-04-24 05:36 48.51974 18.77898 36067 ft 501 kts 202°
2026-04-24 05:36 48.45558 18.73943 36068 ft 501 kts 202°
2026-04-24 05:37 48.39105 18.69974 36068 ft 500 kts 202°
2026-04-24 05:37 48.32663 18.66020 36069 ft 500 kts 202°
2026-04-24 05:38 48.26219 18.62080 36070 ft 500 kts 202°
2026-04-24 05:38 48.20861 18.58813 36073 ft 499 kts 202°
2026-04-24 05:39 48.14415 18.54887 36075 ft 499 kts 202°
2026-04-24 05:39 48.07980 18.50982 36079 ft 499 kts 202°
2026-04-24 05:40 48.01578 18.47106 36081 ft 499 kts 202°
2026-04-24 05:40 47.95141 18.43220 36086 ft 499 kts 202°
2026-04-24 05:41 47.88707 18.39348 36083 ft 499 kts 202°
2026-04-24 05:41 47.82267 18.35486 36086 ft 499 kts 202°
2026-04-24 05:42 47.75811 18.31621 36090 ft 499 kts 202°
2026-04-24 05:42 47.69365 18.27774 36097 ft 499 kts 201°
2026-04-24 05:43 47.62924 18.23936 36105 ft 499 kts 201°
2026-04-24 05:43 47.56482 18.20110 36114 ft 499 kts 201°
2026-04-24 05:44 47.50066 18.16309 36112 ft 499 kts 201°
2026-04-24 05:44 47.43619 18.12501 36114 ft 499 kts 201°
2026-04-24 05:45 47.37166 18.08695 36108 ft 499 kts 201°
2026-04-24 05:45 47.30720 18.04905 36100 ft 499 kts 201°
2026-04-24 05:46 47.24264 18.01124 36100 ft 499 kts 201°
2026-04-24 05:46 47.17819 17.97355 36099 ft 498 kts 201°
2026-04-24 05:47 47.11412 17.93619 36101 ft 498 kts 201°
2026-04-24 05:47 47.04967 17.89872 36104 ft 498 kts 201°
2026-04-24 05:48 46.98527 17.86135 36104 ft 498 kts 201°
2026-04-24 05:48 46.92083 17.82404 36107 ft 497 kts 201°
2026-04-24 05:49 46.85634 17.78680 36113 ft 497 kts 201°
2026-04-24 05:49 46.79185 17.74970 36112 ft 497 kts 201°
2026-04-24 05:50 46.72792 17.71301 36117 ft 497 kts 201°
2026-04-24 05:50 46.66345 17.67609 36113 ft 497 kts 201°
2026-04-24 05:51 46.59906 17.63928 36116 ft 497 kts 201°
2026-04-24 05:51 46.53463 17.60260 36116 ft 497 kts 201°
2026-04-24 05:52 46.47026 17.56601 36118 ft 497 kts 201°
2026-04-24 05:52 46.40585 17.52948 36117 ft 497 kts 201°
2026-04-24 05:53 46.34149 17.49309 36117 ft 497 kts 201°
2026-04-24 05:53 46.27704 17.45677 36117 ft 496 kts 201°
2026-04-24 05:54 46.21267 17.42055 36121 ft 496 kts 200°
2026-04-24 05:54 46.14873 17.38466 36125 ft 496 kts 200°
2026-04-24 05:55 46.08443 17.34867 36125 ft 495 kts 200°
2026-04-24 05:55 46.02018 17.31281 36125 ft 495 kts 200°
2026-04-24 05:56 45.95474 17.28243 36132 ft 493 kts 193°
2026-04-24 05:56 45.88834 17.25742 36129 ft 493 kts 193°
2026-04-24 05:57 45.82207 17.23240 36130 ft 492 kts 193°
2026-04-24 05:57 45.75575 17.20732 36133 ft 492 kts 193°
2026-04-24 05:58 45.68993 17.18250 36134 ft 492 kts 193°
2026-04-24 05:58 45.62368 17.15757 36135 ft 492 kts 193°
2026-04-24 05:59 45.55741 17.13267 36136 ft 492 kts 193°
2026-04-24 05:59 45.49124 17.10788 36136 ft 492 kts 193°
2026-04-24 06:00 45.42499 17.08316 36133 ft 492 kts 193°
2026-04-24 06:00 45.35881 17.05851 36136 ft 491 kts 193°
2026-04-24 06:01 45.29274 17.03395 36140 ft 490 kts 193°
2026-04-24 06:01 45.22673 17.00946 36139 ft 490 kts 193°
2026-04-24 06:02 45.16072 16.98502 36139 ft 490 kts 193°
2026-04-24 06:02 45.09483 16.96069 36144 ft 489 kts 193°
2026-04-24 06:03 45.02894 16.93646 36144 ft 489 kts 193°
2026-04-24 06:03 44.96299 16.91221 36148 ft 489 kts 193°
2026-04-24 06:04 44.89747 16.88819 36154 ft 489 kts 193°
2026-04-24 06:04 44.83160 16.86413 36148 ft 489 kts 193°
2026-04-24 06:05 44.76576 16.84010 36152 ft 489 kts 193°
2026-04-24 06:05 44.69997 16.81616 36156 ft 488 kts 193°
2026-04-24 06:06 44.63408 16.79226 36157 ft 488 kts 193°
2026-04-24 06:06 44.56827 16.76841 36159 ft 488 kts 193°
2026-04-24 06:07 44.50248 16.74462 36154 ft 488 kts 193°
2026-04-24 06:07 44.43661 16.72087 36160 ft 489 kts 193°
2026-04-24 06:08 44.37077 16.69719 36151 ft 489 kts 193°
2026-04-24 06:08 44.30489 16.67356 36152 ft 488 kts 193°
2026-04-24 06:09 44.23948 16.65013 36147 ft 488 kts 193°
2026-04-24 06:09 44.17362 16.62660 36143 ft 488 kts 193°
2026-04-24 06:10 44.10788 16.60316 36136 ft 487 kts 193°
2026-04-24 06:11 44.00950 16.56822 36133 ft 486 kts 193°
2026-04-24 06:11 43.94387 16.54496 36129 ft 485 kts 193°
2026-04-24 06:12 43.87853 16.52187 36125 ft 484 kts 193°
2026-04-24 06:12 43.81375 16.49901 36129 ft 483 kts 193°
2026-04-24 06:13 43.74855 16.47607 36129 ft 482 kts 193°
2026-04-24 06:13 43.68348 16.45322 36136 ft 482 kts 193°
2026-04-24 06:14 43.61855 16.43049 36140 ft 481 kts 193°
2026-04-24 06:14 43.55360 16.40786 36142 ft 481 kts 193°
2026-04-24 06:15 43.48870 16.38528 36138 ft 481 kts 193°
2026-04-24 06:15 43.42377 16.36255 36139 ft 482 kts 193°
2026-04-24 06:16 43.35870 16.33988 36133 ft 482 kts 193°
2026-04-24 06:16 43.29406 16.31748 36129 ft 482 kts 193°
2026-04-24 06:17 43.22898 16.29499 36124 ft 482 kts 193°
2026-04-24 06:17 43.16397 16.27256 36123 ft 482 kts 193°
2026-04-24 06:18 43.09891 16.25018 36131 ft 482 kts 193°
2026-04-24 06:18 43.03386 16.22782 36130 ft 481 kts 192°
2026-04-24 06:19 42.96937 16.20572 36132 ft 481 kts 192°
2026-04-24 06:19 42.90453 16.18353 36131 ft 480 kts 192°
2026-04-24 06:20 42.83974 16.16142 36138 ft 479 kts 192°
2026-04-24 06:20 42.77513 16.13945 36136 ft 479 kts 192°
2026-04-24 06:21 42.71049 16.11747 36137 ft 478 kts 192°
2026-04-24 06:21 42.64587 16.09557 36139 ft 478 kts 192°
2026-04-24 06:22 42.58131 16.07373 36138 ft 478 kts 192°
2026-04-24 06:22 42.51674 16.05186 36137 ft 478 kts 193°
2026-04-24 06:23 42.45379 16.02250 36143 ft 478 kts 199°
2026-04-24 06:23 42.39189 15.99095 36139 ft 478 kts 199°
2026-04-24 06:24 42.32947 15.95965 36143 ft 477 kts 199°
2026-04-24 06:24 42.26728 15.92863 36145 ft 476 kts 199°
2026-04-24 06:25 42.20509 15.89765 36167 ft 475 kts 199°
2026-04-24 06:25 42.15353 15.87202 36181 ft 475 kts 199°
2026-04-24 06:26 42.09157 15.84130 36203 ft 474 kts 199°
2026-04-24 06:26 42.01968 15.80572 36227 ft 473 kts 199°
2026-04-24 06:27 41.96792 15.78019 36229 ft 473 kts 198°
2026-04-24 06:27 41.90611 15.74968 36234 ft 473 kts 199°
2026-04-24 06:28 41.84468 15.71947 36232 ft 473 kts 198°
2026-04-24 06:28 41.78279 15.68909 36210 ft 473 kts 199°
2026-04-24 06:29 41.72098 15.65880 36147 ft 473 kts 199°
2026-04-24 06:29 41.65910 15.62853 36144 ft 473 kts 199°
2026-04-24 06:30 41.59733 15.59846 36140 ft 472 kts 199°
2026-04-24 06:30 41.53574 15.56850 36142 ft 470 kts 199°
2026-04-24 06:31 41.47464 15.53878 36172 ft 469 kts 199°
2026-04-24 06:31 41.41329 15.50904 36170 ft 469 kts 199°
2026-04-24 06:32 41.35194 15.47939 36170 ft 468 kts 199°
2026-04-24 06:32 41.29073 15.44984 36167 ft 468 kts 199°
2026-04-24 06:33 41.22946 15.42029 36166 ft 468 kts 199°
2026-04-24 06:33 41.16872 15.39107 36168 ft 467 kts 199°
2026-04-24 06:34 41.10751 15.36172 36168 ft 467 kts 199°
2026-04-24 06:34 41.04639 15.33239 36175 ft 467 kts 199°
2026-04-24 06:35 40.98528 15.30320 36173 ft 467 kts 199°
2026-04-24 06:35 40.92410 15.27402 36178 ft 467 kts 200°
2026-04-24 06:36 40.86302 15.24484 36178 ft 467 kts 200°
2026-04-24 06:36 40.80196 15.21570 36170 ft 467 kts 200°
2026-04-24 06:37 40.74079 15.18667 36161 ft 467 kts 200°
2026-04-24 06:37 40.67971 15.15779 36153 ft 466 kts 200°
2026-04-24 06:38 40.61902 15.12908 36149 ft 466 kts 200°
2026-04-24 06:38 40.55792 15.10026 36148 ft 466 kts 200°
2026-04-24 06:39 40.49690 15.07154 36145 ft 466 kts 200°
2026-04-24 06:39 40.43585 15.04284 36144 ft 465 kts 200°
2026-04-24 06:40 40.37487 15.01427 36146 ft 465 kts 200°
2026-04-24 06:40 40.31385 14.98574 36150 ft 465 kts 200°
2026-04-24 06:41 40.25338 14.95732 36149 ft 464 kts 200°
2026-04-24 06:41 40.19246 14.92891 36148 ft 464 kts 200°
2026-04-24 06:42 40.13159 14.90061 36149 ft 464 kts 200°
2026-04-24 06:42 40.07067 14.87247 36150 ft 463 kts 200°
2026-04-24 06:43 40.00988 14.84443 36151 ft 463 kts 200°
2026-04-24 06:43 39.94907 14.81628 36148 ft 464 kts 200°
2026-04-24 06:44 39.88732 14.79198 36145 ft 465 kts 189°
2026-04-24 06:44 39.85513 14.78911 36145 ft 465 kts 178°
2026-04-24 06:44 39.82312 14.79447 36147 ft 464 kts 166°
2026-04-24 06:44 39.79265 14.80782 36150 ft 462 kts 154°
2026-04-24 06:45 39.76473 14.82845 36148 ft 460 kts 143°
2026-04-24 06:45 39.74075 14.85495 36147 ft 457 kts 131°
2026-04-24 06:45 39.71997 14.88619 36150 ft 456 kts 127°
2026-04-24 06:45 39.70026 14.91821 36043 ft 451 kts 126°
2026-04-24 06:46 39.68048 14.95006 35702 ft 454 kts 127°
2026-04-24 06:46 39.66043 14.98181 35435 ft 455 kts 127°
2026-04-24 06:46 39.64027 15.01352 35187 ft 456 kts 127°
2026-04-24 06:46 39.62003 15.04530 34868 ft 455 kts 127°
2026-04-24 06:47 39.59985 15.07681 34283 ft 454 kts 127°
2026-04-24 06:47 39.57979 15.10793 33548 ft 453 kts 127°
2026-04-24 06:47 39.55964 15.13927 32879 ft 452 kts 127°
2026-04-24 06:47 39.53954 15.17061 32233 ft 450 kts 127°
2026-04-24 06:48 39.51959 15.20179 31614 ft 448 kts 127°
2026-04-24 06:48 39.49972 15.23273 31012 ft 446 kts 127°
2026-04-24 06:48 39.47988 15.26337 30430 ft 443 kts 127°
2026-04-24 06:48 39.46015 15.29389 29796 ft 440 kts 127°
2026-04-24 06:49 39.44057 15.32423 29123 ft 437 kts 127°
2026-04-24 06:49 39.42116 15.35434 28504 ft 433 kts 127°
2026-04-24 06:49 39.40197 15.38405 27921 ft 429 kts 127°
2026-04-24 06:49 39.38292 15.41354 27342 ft 425 kts 127°
2026-04-24 06:50 39.36399 15.44278 26752 ft 422 kts 127°
2026-04-24 06:50 39.34516 15.47176 26159 ft 420 kts 127°
2026-04-24 06:50 39.32641 15.50058 25595 ft 417 kts 127°
2026-04-24 06:50 39.30809 15.52879 25047 ft 414 kts 127°
2026-04-24 06:51 39.28959 15.55728 24466 ft 413 kts 127°
2026-04-24 06:51 39.27118 15.58563 23900 ft 411 kts 127°
2026-04-24 06:51 39.25279 15.61387 23281 ft 409 kts 127°
2026-04-24 06:51 39.23445 15.64200 22658 ft 407 kts 127°
2026-04-24 06:52 39.21628 15.66983 22080 ft 403 kts 127°
2026-04-24 06:52 39.19829 15.69741 21498 ft 400 kts 127°
2026-04-24 06:52 39.18062 15.72451 20946 ft 398 kts 127°
2026-04-24 06:52 39.16293 15.75167 20418 ft 394 kts 127°
2026-04-24 06:53 39.14537 15.77857 19906 ft 390 kts 127°
2026-04-24 06:53 39.12788 15.80525 19420 ft 388 kts 127°
2026-04-24 06:53 39.11052 15.83175 18945 ft 385 kts 127°
2026-04-24 06:53 39.09329 15.85808 18486 ft 384 kts 127°
2026-04-24 06:54 39.07613 15.88426 17988 ft 382 kts 127°
2026-04-24 06:54 39.05903 15.91023 17476 ft 376 kts 127°
2026-04-24 06:54 39.04227 15.93564 17003 ft 369 kts 127°
2026-04-24 06:54 39.02602 15.96041 16557 ft 363 kts 126°
2026-04-24 06:55 39.00991 15.98507 16123 ft 356 kts 126°
2026-04-24 06:55 38.99407 16.00924 15699 ft 350 kts 126°
2026-04-24 06:55 38.97845 16.03301 15299 ft 345 kts 126°
2026-04-24 06:55 38.96294 16.05654 14903 ft 345 kts 126°
2026-04-24 06:56 38.94739 16.08014 14492 ft 346 kts 125°
2026-04-24 06:56 38.93178 16.10378 14053 ft 348 kts 125°
2026-04-24 06:56 38.91611 16.12749 13579 ft 349 kts 126°
2026-04-24 06:56 38.90036 16.15130 13122 ft 349 kts 126°
2026-04-24 06:57 38.88467 16.17501 12693 ft 345 kts 126°
2026-04-24 06:57 38.86926 16.19825 12250 ft 339 kts 126°
2026-04-24 06:57 38.85412 16.22105 11802 ft 333 kts 126°
2026-04-24 06:57 38.83917 16.24353 11331 ft 329 kts 127°
2026-04-24 06:58 38.82462 16.26539 10893 ft 324 kts 127°
2026-04-24 06:58 38.81019 16.28707 10609 ft 314 kts 127°
2026-04-24 06:58 38.79627 16.30799 10418 ft 302 kts 127°
2026-04-24 06:58 38.78287 16.32815 10220 ft 292 kts 127°
2026-04-24 06:59 38.76998 16.34800 9835 ft 288 kts 123°
2026-04-24 06:59 38.76102 16.37032 9395 ft 280 kts 102°
2026-04-24 06:59 38.75963 16.39485 8990 ft 275 kts 80°
2026-04-24 06:59 38.76357 16.41873 8641 ft 272 kts 73°
2026-04-24 07:00 38.76817 16.44211 8294 ft 269 kts 73°
2026-04-24 07:00 38.77264 16.46531 7920 ft 267 kts 74°
2026-04-24 07:00 38.77697 16.48841 7580 ft 267 kts 75°
2026-04-24 07:00 38.78119 16.51129 7250 ft 267 kts 75°
2026-04-24 07:01 38.78541 16.53443 6916 ft 265 kts 75°
2026-04-24 07:01 38.78955 16.55735 6560 ft 262 kts 75°
2026-04-24 07:01 38.79364 16.58000 6183 ft 261 kts 75°
2026-04-24 07:01 38.79975 16.60175 5822 ft 259 kts 58°
2026-04-24 07:02 38.81151 16.61894 5463 ft 257 kts 37°
2026-04-24 07:02 38.82726 16.62927 5129 ft 255 kts 16°
2026-04-24 07:02 38.84472 16.63150 4938 ft 250 kts 355°
2026-04-24 07:02 38.86098 16.62582 4914 ft 237 kts 336°
2026-04-24 07:03 38.87296 16.61235 4906 ft 232 kts 301°
2026-04-24 07:03 38.87654 16.59217 4926 ft 238 kts 270°
2026-04-24 07:03 38.87486 16.57102 4791 ft 239 kts 264°
2026-04-24 07:03 38.87322 16.54990 4536 ft 237 kts 269°
2026-04-24 07:04 38.87319 16.52895 4243 ft 233 kts 275°
2026-04-24 07:04 38.87460 16.50826 3939 ft 231 kts 279°
2026-04-24 07:04 38.87677 16.48831 3626 ft 227 kts 281°
2026-04-24 07:04 38.87906 16.46841 3322 ft 224 kts 281°
2026-04-24 07:05 38.88135 16.44868 3040 ft 223 kts 280°
2026-04-24 07:05 38.88359 16.42946 2724 ft 212 kts 281°
2026-04-24 07:05 38.88571 16.41129 2432 ft 199 kts 280°
2026-04-24 07:05 38.88767 16.39447 2237 ft 184 kts 279°
2026-04-24 07:06 38.88953 16.37859 1968 ft 176 kts 278°
2026-04-24 07:06 38.89131 16.36332 1720 ft 169 kts 278°
2026-04-24 07:06 38.89301 16.34871 1482 ft 162 kts 278°
2026-04-24 07:06 38.89462 16.33491 1292 ft 150 kts 278°
2026-04-24 07:07 38.89612 16.32189 1073 ft 146 kts 278°
2026-04-24 07:07 38.89759 16.30898 883 ft 146 kts 279°
2026-04-24 07:07 38.90068 16.28335 449 ft 145 kts 278°
2026-04-24 07:08 38.90209 16.27060 246 ft 144 kts 278°
2026-04-24 07:08 38.90356 16.25807 73 ft 144 kts 279°
2026-04-24 07:08 38.90495 16.24615 37 ft 118 kts 278°
2026-04-24 07:08 38.90587 16.23833 36 ft 60 kts 278°
2026-04-24 07:09 38.90642 16.23631 39 ft 19 kts 308°
2026-04-24 07:09 38.90726 16.23496 39 ft 20 kts 309°
2026-04-24 07:09 38.90836 16.23524 37 ft 19 kts 63°
2026-04-24 07:09 38.90830 16.23699 37 ft 21 kts 102°
2026-04-24 07:10 38.90805 16.23874 37 ft 16 kts 98°
2026-04-24 07:10 38.90787 16.24024 37 ft 18 kts 98°
2026-04-24 07:10 38.90779 16.24144 37 ft 9 kts 76°
2026-04-24 07:10 38.90788 16.24171 37 ft 0 kts 59°
2026-04-24 07:11 38.90790 16.24175 37 ft 3 kts 59°
2026-04-24 07:11 38.90815 16.24221 37 ft 8 kts 52°
2026-04-24 07:11 38.90829 16.24298 37 ft 10 kts 96°
2026-04-24 07:12 38.90821 16.24397 37 ft 7 kts 97°
2026-04-24 07:12 38.90846 16.24435 37 ft 7 kts 16°
2026-04-24 07:12 38.90866 16.24440 37 ft 2 kts 25°
2026-04-24 07:12 38.90873 16.24449 37 ft 0 kts 51°